H1 CPF 2 NER 2023 9 30 9 273 01 glonass116 H2 0907001 9116 36111 2023 9 30 0 0 0 2023 10 3 23 45 0 900 1 1 0 0 0 1 H9 10 0 60217 0.00000 0 1210185.567 -25254323.258 3405452.925 10 0 60217 900.00000 0 1089437.305 -25488295.121 207872.285 10 0 60217 1800.00000 0 947935.731 -25319119.360 -2993745.878 10 0 60217 2700.00000 0 840588.751 -24750281.811 -6137238.639 10 0 60217 3600.00000 0 820464.544 -23798415.088 -9161582.757 10 0 60217 4500.00000 0 936303.766 -22492638.063 -12008078.835 10 0 60217 5400.00000 0 1230217.537 -20873391.614 -14621489.176 10 0 60217 6300.00000 0 1735668.913 -18990819.585 -16951107.279 10 0 60217 7200.00000 0 2475823.507 -16902762.752 -18951738.380 10 0 60217 8100.00000 0 3462339.278 -14672449.606 -20584572.442 10 0 60217 9000.00000 0 4694647.101 -12365980.102 -21817933.140 10 0 60217 9900.00000 0 6159753.110 -10049706.964 -22627888.873 10 0 60217 10800.00000 0 7832572.066 -7787623.035 -22998714.529 10 0 60217 11700.00000 0 9676778.910 -5638862.730 -22923195.488 10 0 60217 12600.00000 0 11646144.084 -3655420.746 -22402768.216 10 0 60217 13500.00000 0 13686298.101 -1880182.045 -21447494.804 10 0 60217 14400.00000 0 15736852.949 -345344.151 -20075871.714 10 0 60217 15300.00000 0 17733792.890 928703.378 -18314476.019 10 0 60217 16200.00000 0 19612035.820 1933996.489 -16197455.401 10 0 60217 17100.00000 0 21308058.942 2675086.217 -13765871.078 10 0 60217 18000.00000 0 22762479.420 3168597.304 -11066905.724 10 0 60217 18900.00000 0 23922482.218 3442275.141 -8152951.161 10 0 60217 19800.00000 0 24743993.336 3533561.769 -5080593.043 10 0 60217 20700.00000 0 25193506.987 3487761.605 -1909512.110 10 0 60217 21600.00000 0 25249489.565 3355874.996 1298676.644 10 0 60217 22500.00000 0 24903300.872 3192191.883 4481624.055 10 0 60217 23400.00000 0 24159593.335 3051748.124 7577462.316 10 0 60217 24300.00000 0 23036171.923 2987752.992 10526011.735 10 0 60217 25200.00000 0 21563320.243 3049097.603 13269954.696 10 0 60217 26100.00000 0 19782620.845 3278050.641 15755953.399 10 0 60217 27000.00000 0 17745319.055 3708239.751 17935689.255 10 0 60217 27900.00000 0 15510298.856 4363004.800 19766803.501 10 0 60217 28800.00000 0 13141755.513 5254193.417 21213720.690 10 0 60217 29700.00000 0 10706662.216 6381450.439 22248339.196 10 0 60217 30600.00000 0 8272136.409 7732032.035 22850575.612 10 0 60217 31500.00000 0 5902815.422 9281153.155 23008752.791 10 0 60217 32400.00000 0 3658350.405 10992854.508 22719824.385 10 0 60217 33300.00000 0 1591122.338 12821353.510 21989431.800 10 0 60217 34200.00000 0 -255725.515 14712823.339 20831792.697 10 0 60217 35100.00000 0 -1849857.703 16607526.229 19269423.275 10 0 60217 36000.00000 0 -3170854.938 18442212.324 17332699.683 10 0 60217 36900.00000 0 -4210815.693 20152684.090 15059266.982 10 0 60217 37800.00000 0 -4974427.279 21676419.274 12493306.974 10 0 60217 38700.00000 0 -5478504.869 22955142.755 9684678.915 10 0 60217 39600.00000 0 -5751019.194 23937239.594 6687949.803 10 0 60217 40500.00000 0 -5829655.173 24579908.095 3561333.036 10 0 60217 41400.00000 0 -5759963.428 24850962.544 365556.185 10 0 60217 42300.00000 0 -5593183.762 24730209.834 -2837319.837 10 0 60217 43200.00000 0 -5383833.475 24210342.163 -5985107.018 10 0 60217 44100.00000 0 -5187163.221 23297308.252 -9016698.160 10 0 60217 45000.00000 0 -5056588.593 22010147.469 -11873252.731 10 0 60217 45900.00000 0 -5041206.505 20380293.770 -14499337.494 10 0 60217 46800.00000 0 -5183501.672 18450378.536 -16843999.840 10 0 60217 47700.00000 0 -5517340.379 16272582.245 -18861753.125 10 0 60217 48600.00000 0 -6066336.446 13906603.647 -20513455.320 10 0 60217 49500.00000 0 -6842658.638 11417330.788 -21767064.418 10 0 60217 50400.00000 0 -7846330.154 8872310.485 -22598256.490 10 0 60217 51300.00000 0 -9065050.292 6339120.910 -22990894.984 10 0 60217 52200.00000 0 -10474546.580 3882755.801 -22937342.607 10 0 60217 53100.00000 0 -12039443.586 1563128.135 -22438610.033 10 0 60217 54000.00000 0 -13714613.108 -567203.923 -21504338.605 10 0 60217 54900.00000 0 -15446950.388 -2464995.290 -20152617.175 10 0 60217 55800.00000 0 -17177503.138 -4097875.903 -18409636.231 10 0 60217 56700.00000 0 -18843865.275 -5445452.263 -16309185.405 10 0 60217 57600.00000 0 -20382735.995 -6499903.520 -13892003.405 10 0 60217 58500.00000 0 -21732537.499 -7266048.009 -11204992.289 10 0 60217 59400.00000 0 -22835981.907 -7760878.260 -8300310.695 10 0 60217 60300.00000 0 -23642479.605 -8012584.764 -5234363.183 10 0 60217 61200.00000 0 -24110287.553 -8059110.275 -2066705.088 10 0 60217 62100.00000 0 -24208306.737 -7946296.349 1141115.782 10 0 60217 63000.00000 0 -23917452.475 -7725701.082 4326757.885 10 0 60217 63900.00000 0 -23231539.187 -7452181.089 7428301.278 10 0 60217 64800.00000 0 -22157641.646 -7181340.806 10385455.408 10 0 60217 65700.00000 0 -20715916.808 -6966957.850 13140735.234 10 0 60217 66600.00000 0 -18938893.140 -6858494.238 15640582.259 10 0 60217 67500.00000 0 -16870256.761 -6898799.491 17836408.255 10 0 60217 68400.00000 0 -14563184.927 -7122103.492 19685541.177 10 0 60217 69300.00000 0 -12078296.326 -7552384.549 21152054.785 10 0 60217 70200.00000 0 -9481303.617 -8202182.164 22207466.018 10 0 60217 71100.00000 0 -6840465.896 -9071905.152 22831286.852 10 0 60217 72000.00000 0 -4223946.999 -10149664.806 23011420.240 10 0 60217 72900.00000 0 -1697189.227 -11411640.710 22744392.842 10 0 60217 73800.00000 0 679588.825 -12822964.383 22035420.296 10 0 60217 74700.00000 0 2853666.887 -14339084.218 20898304.014 10 0 60217 75600.00000 0 4781776.357 -15907554.949 19355161.541 10 0 60217 76500.00000 0 6431652.071 -17470177.072 17435995.723 10 0 60217 77400.00000 0 7783119.000 -18965396.828 15178110.897 10 0 60217 78300.00000 0 8828669.829 -20330866.352 12625387.313 10 0 60217 79200.00000 0 9573510.676 -21506056.709 9827427.697 10 0 60217 80100.00000 0 10035074.450 -22434814.129 6838592.479 10 0 60217 81000.00000 0 10242023.703 -23067752.002 3716942.439 10 0 60217 81900.00000 0 10232786.270 -23364377.969 523109.413 10 0 60217 82800.00000 0 10053686.617 -23294866.490 -2680882.731 10 0 60217 83700.00000 0 9756752.798 -22841402.124 -5832823.673 10 0 60217 84600.00000 0 9397292.538 -21999036.813 -8871525.047 10 0 60217 85500.00000 0 9031341.531 -20776024.882 -11738007.944 10 0 60218 0.00000 0 8713092.345 -19193621.575 -14376646.062 10 0 60218 900.00000 0 8492412.712 -17285352.343 -16736243.735 10 0 60218 1800.00000 0 8412558.646 -15095785.314 -18771024.595 10 0 60218 2700.00000 0 8508178.401 -12678854.993 -20441516.775 10 0 60218 3600.00000 0 8803691.986 -10095808.643 -21715314.408 10 0 60218 4500.00000 0 9312114.429 -7412859.520 -22567702.659 10 0 60218 5400.00000 0 10034372.584 -4698643.959 -22982134.508 10 0 60218 6300.00000 0 10959144.657 -2021587.143 -22950550.500 10 0 60218 7200.00000 0 12063229.735 552713.952 -22473535.537 10 0 60218 8100.00000 0 13312432.645 2963982.773 -21560309.770 10 0 60218 9000.00000 0 14662927.893 5159528.091 -20228553.561 10 0 60218 9900.00000 0 16063046.477 7096188.431 -18504069.504 10 0 60218 10800.00000 0 17455411.531 8741876.105 -16420287.473 10 0 60218 11700.00000 0 18779334.037 10076657.418 -14017621.571 10 0 60218 12600.00000 0 19973368.625 11093324.757 -11342690.771 10 0 60218 13500.00000 0 20977922.426 11797437.445 -8447417.746 10 0 60218 14400.00000 0 21737807.367 12206830.383 -5388022.896 10 0 60218 15300.00000 0 22204628.276 12350611.837 -2223932.909 10 0 60218 16200.00000 0 22338905.729 12267693.299 983374.925 10 0 60218 17100.00000 0 22111843.529 12004914.124 4171569.970 10 0 60218 18000.00000 0 21506665.502 11614840.904 7278683.314 10 0 60218 18900.00000 0 20519464.366 11153335.315 10244316.450 10 0 60218 19800.00000 0 19159526.002 10676994.087 13010819.527 10 0 60218 20700.00000 0 17449114.645 10240570.071 15524415.617 10 0 60218 21600.00000 0 15422727.200 9894484.174 17736248.769 10 0 60218 22500.00000 0 13125847.284 9682533.899 19603335.210 10 0 60218 23400.00000 0 10613250.622 9639895.827 21089399.109 10 0 60218 24300.00000 0 7946932.139 9791506.745 22165576.830 10 0 60218 25200.00000 0 5193740.791 10150892.036 22810976.229 10 0 60218 26100.00000 0 2422820.307 10719490.984 23013080.490 10 0 60218 27000.00000 0 -297038.129 11486507.630 22767989.008 10 0 60218 27900.00000 0 -2900021.722 12429293.750 22080490.982 10 0 60218 28800.00000 0 -5325791.888 13514248.062 20963970.459 10 0 60218 29700.00000 0 -7521747.109 14698194.179 19440144.827 10 0 60218 30600.00000 0 -9444959.601 15930179.656 17538641.737 10 0 60218 31500.00000 0 -11063706.200 17153620.722 15296422.608 10 0 60218 32400.00000 0 -12358530.810 18308702.767 12757063.725 10 0 60218 33300.00000 0 -13322795.332 19334935.684 9969908.719 10 0 60218 34200.00000 0 -13962697.341 20173756.586 6989108.831 10 0 60218 35100.00000 0 -14296755.144 20771070.222 3872569.600 10 0 60218 36000.00000 0 -14354783.196 21079619.956 680824.533 10 0 60218 36900.00000 0 -14176402.236 21061089.171 -2524142.078 10 0 60218 37800.00000 0 -13809148.078 20687844.251 -5680100.051 10 0 60218 38700.00000 0 -13306259.800 19944245.429 -8725782.207 10 0 60218 39600.00000 0 -12724241.484 18827469.879 -11602073.478 10 0 60218 40500.00000 0 -12120301.028 17347812.061 -14253157.006 10 0 60218 41400.00000 0 -11549774.502 15528448.168 -16627594.993 10 0 60218 42300.00000 0 -11063644.933 13404674.007 -18679323.498 10 0 60218 43200.00000 0 -10706260.142 11022647.574 -20368542.247 10 0 60218 44100.00000 0 -10513345.735 8437688.071 -21662482.704 10 0 60218 45000.00000 0 -10510396.776 5712201.516 -22536040.076 10 0 60218 45900.00000 0 -10711515.720 2913318.343 -22972257.548 10 0 60218 46800.00000 0 -11118745.479 110340.216 -22962653.869 10 0 60218 47700.00000 0 -11721925.822 -2627898.911 -22507388.196 10 0 60218 48600.00000 0 -12499079.482 -5235649.028 -21615259.130 10 0 60218 49500.00000 0 -13417312.295 -7652730.054 -20303537.774 10 0 60218 50400.00000 0 -14434190.216 -9826785.312 -18597637.643 10 0 60218 51300.00000 0 -15499536.072 -11715209.753 -16530627.268 10 0 60218 52200.00000 0 -16557571.262 -13286673.551 -14142594.218 10 0 60218 53100.00000 0 -17549312.866 -14522178.274 -11479872.175 10 0 60218 54000.00000 0 -18415125.696 -15415602.229 -8594145.424 10 0 60218 54900.00000 0 -19097321.902 -15973712.791 -5541447.651 10 0 60218 55800.00000 0 -19542698.427 -16215645.846 -2381074.260 10 0 60218 56700.00000 0 -19704904.842 -16171874.851 825570.663 10 0 60218 57600.00000 0 -19546541.019 -15882713.593 4016170.104 10 0 60218 58500.00000 0 -19040895.222 -15396416.461 7128708.874 10 0 60218 59400.00000 0 -18173248.338 -14766957.145 10102683.201 10 0 60218 60300.00000 0 -16941688.168 -14051580.283 12880281.021 10 0 60218 61200.00000 0 -15357398.455 -13308230.208 15407509.450 10 0 60218 62100.00000 0 -13444409.442 -12592966.040 17635247.082 10 0 60218 63000.00000 0 -11238819.518 -11957472.812 19520200.407 10 0 60218 63900.00000 0 -8787519.721 -11446774.096 21025745.664 10 0 60218 64800.00000 0 -6146473.729 -11097242.857 22122639.912 10 0 60218 65700.00000 0 -3378624.450 -10934994.533 22789587.756 10 0 60218 66600.00000 0 -551513.925 -10974730.041 23013653.061 10 0 60218 67500.00000 0 2265284.977 -11219077.356 22790508.030 10 0 60218 68400.00000 0 5002818.898 -11658459.303 22124515.109 10 0 60218 69300.00000 0 7595376.768 -12271493.016 21028640.358 10 0 60218 70200.00000 0 9982976.766 -13025904.195 19524200.052 10 0 60218 71100.00000 0 12113614.849 -13879917.663 17640445.410 10 0 60218 72000.00000 0 13945182.138 -14784065.671 15413993.396 10 0 60218 72900.00000 0 15446972.292 -15683337.795 12888114.486 10 0 60218 73800.00000 0 16600717.032 -16519581.826 10111891.066 10 0 60218 74700.00000 0 17401107.714 -17234054.375 7139262.736 10 0 60218 75600.00000 0 17855782.309 -17770013.475 4027977.075 10 0 60218 76500.00000 0 17984779.597 -18075243.601 838466.339 10 0 60218 77400.00000 0 17819484.706 -18104406.287 -2367327.803 10 0 60218 78300.00000 0 17401111.530 -17821116.776 -5527158.389 10 0 60218 79200.00000 0 16778786.936 -17199658.736 -8579682.454 10 0 60218 80100.00000 0 16007318.392 -16226264.258 -11465651.678 10 0 60218 81000.00000 0 15144739.777 -14899904.710 -14129061.144 10 0 60218 81900.00000 0 14249739.259 -13232558.577 -16518233.898 10 0 60218 82800.00000 0 13379077.880 -11248944.343 -18586820.411 10 0 60218 83700.00000 0 12585107.545 -8985728.837 -20294693.926 10 0 60218 84600.00000 0 11913492.732 -6490243.236 -21608724.815 10 0 60218 85500.00000 0 11401231.440 -3818759.346 -22503419.496 10 0 60219 0.00000 0 11075058.249 -1034397.209 -22961412.077 10 0 60219 900.00000 0 10950296.097 1795251.636 -22973799.871 10 0 60219 1800.00000 0 11030205.158 4600683.812 -22540316.046 10 0 60219 2700.00000 0 11305855.507 7313126.557 -21669337.016 10 0 60219 3600.00000 0 11756529.450 9867150.690 -20377723.544 10 0 60219 4500.00000 0 12350636.671 12203148.060 -18690498.579 10 0 60219 5400.00000 0 13047104.144 14269571.210 -16640367.431 10 0 60219 6300.00000 0 13797182.753 16024842.909 -14267088.878 10 0 60219 7200.00000 0 14546595.005 17438856.618 -11616708.709 10 0 60219 8100.00000 0 15237933.624 18494005.860 -8740669.915 10 0 60219 9000.00000 0 15813210.011 19185699.962 -5694816.302 10 0 60219 9900.00000 0 16216444.901 19522345.025 -2538308.646 10 0 60219 10800.00000 0 16396191.454 19524791.399 667525.589 10 0 60219 11700.00000 0 16307883.580 19225271.434 3860386.391 10 0 60219 12600.00000 0 15915909.439 18665872.782 6978215.542 10 0 60219 13500.00000 0 15195321.546 17896612.219 9960406.989 10 0 60219 14400.00000 0 14133110.163 16973191.850 12748989.136 10 0 60219 15300.00000 0 12728985.117 15954533.032 15289755.450 10 0 60219 16200.00000 0 10995631.948 14900192.596 17533320.995 10 0 60219 17100.00000 0 8958430.468 13867770.857 19436084.060 10 0 60219 18000.00000 0 6654646.508 12910421.020 20961074.096 10 0 60219 18900.00000 0 4132129.723 12074565.090 22078669.610 10 0 60219 19800.00000 0 1447570.996 11397912.459 22767172.310 10 0 60219 20700.00000 0 -1335608.623 10907864.397 23013226.686 10 0 60219 21600.00000 0 -4149650.218 10620371.245 22812077.249 10 0 60219 22500.00000 0 -6925031.716 10539289.999 22167658.753 10 0 60219 23400.00000 0 -9593118.566 10656268.827 21092517.862 10 0 60219 24300.00000 0 -12088780.863 10951162.975 19607567.894 10 0 60219 25200.00000 0 -14352868.840 11392964.118 17741681.383 10 0 60219 26100.00000 0 -16334444.399 11941203.689 15531128.241 10 0 60219 27000.00000 0 -17992676.574 12547770.740 13018870.304 10 0 60219 27900.00000 0 -19298322.728 13159067.408 10253725.733 10 0 60219 28800.00000 0 -20234734.539 13718410.794 7289419.484 10 0 60219 29700.00000 0 -20798347.678 14168579.548 4183538.224 10 0 60219 30600.00000 0 -20998635.700 14454397.321 996410.132 10 0 60219 31500.00000 0 -20857531.151 14525243.559 -2210068.417 10 0 60219 32400.00000 0 -20408339.230 14337385.159 -5373636.180 10 0 60219 33300.00000 0 -19694190.693 13856030.076 -8432876.715 10 0 60219 34200.00000 0 -18766099.967 13057015.653 -11328410.575 10 0 60219 35100.00000 0 -17680710.923 11928059.948 -14004046.692 10 0 60219 36000.00000 0 -16497825.683 10469522.676 -16407870.625 10 0 60219 36900.00000 0 -15277820.735 8694643.060 -18493248.657 10 0 60219 37800.00000 0 -14079059.049 6629243.739 -20219728.648 10 0 60219 38700.00000 0 -12955406.735 4310912.166 -21553820.664 10 0 60219 39600.00000 0 -11953958.187 1787692.643 -22469642.799 10 0 60219 40500.00000 0 -11113064.666 -883657.618 -22949420.271 10 0 60219 41400.00000 0 -10460748.435 -3639777.048 -22983828.611 10 0 60219 42300.00000 0 -10013568.435 -6413086.402 -22572174.613 10 0 60219 43200.00000 0 -9775984.572 -9134355.684 -21722411.666 10 0 60219 44100.00000 0 -9740246.945 -11735345.879 -20450989.039 10 0 60219 45000.00000 0 -9886814.483 -14151416.795 -18782537.637 10 0 60219 45900.00000 0 -10185285.367 -16323993.580 -16749397.789 10 0 60219 46800.00000 0 -10595800.164 -18202790.092 -14390997.493 10 0 60219 47700.00000 0 -11070858.783 -19747697.043 -11753092.469 10 0 60219 48600.00000 0 -11557474.751 -20930256.635 -8886882.119 10 0 60219 49500.00000 0 -11999575.959 -21734662.389 -5848018.018 10 0 60219 50400.00000 0 -12340550.359 -22158242.566 -2695523.936 10 0 60219 51300.00000 0 -12525828.657 -22211407.187 509351.659 10 0 60219 52200.00000 0 -12505394.250 -21917061.172 3704328.127 10 0 60219 53100.00000 0 -12236113.463 -21309508.620 6827306.579 10 0 60219 54000.00000 0 -11683786.595 -20432894.828 9817581.021 10 0 60219 54900.00000 0 -10824831.992 -19339252.131 12617022.625 10 0 60219 55800.00000 0 -9647530.847 -18086232.443 15171213.432 10 0 60219 56700.00000 0 -8152779.022 -16734622.543 17430507.057 10 0 60219 57600.00000 0 -6354312.989 -15345747.165 19350995.465 10 0 60219 58500.00000 0 -4278399.235 -13978869.548 20895362.937 10 0 60219 59400.00000 0 -1962999.023 -12688698.898 22033610.727 10 0 60219 60300.00000 0 543557.589 -11523109.527 22743638.598 10 0 60219 61200.00000 0 3184333.999 -10521167.209 23011672.251 10 0 60219 62100.00000 0 5895912.957 -9711545.231 22832528.731 10 0 60219 63000.00000 0 8610798.366 -9111396.003 22209714.971 10 0 60219 63900.00000 0 11259993.694 -8725724.963 21155357.775 10 0 60219 64800.00000 0 13775650.416 -8547292.272 19689966.723 10 0 60219 65700.00000 0 16093676.963 -8557045.689 17842034.566 10 0 60219 66600.00000 0 18156200.151 -8725065.689 15647482.762 10 0 60219 67500.00000 0 19913777.192 -9011982.333 13148962.763 10 0 60219 68400.00000 0 21327266.694 -9370803.586 10395026.442 10 0 60219 69300.00000 0 22369281.151 -9749077.370 7439181.697 10 0 60219 70200.00000 0 23025160.954 -10091295.560 4338851.563 10 0 60219 71100.00000 0 23293429.896 -10341437.860 1154257.153 10 0 60219 72000.00000 0 23185713.905 -10445547.535 -2052753.613 10 0 60219 72900.00000 0 22726127.263 -10354229.632 -5219908.448 10 0 60219 73800.00000 0 21950152.940 -10024965.555 -8285720.636 10 0 60219 74700.00000 0 20903064.864 -9424145.706 -11190682.655 10 0 60219 75600.00000 0 19637959.139 -8528733.786 -13878420.121 10 0 60219 76500.00000 0 18213477.425 -7327491.949 -16296783.659 10 0 60219 77400.00000 0 16691318.445 -5821714.508 -18398857.605 10 0 60219 78300.00000 0 15133642.182 -4025438.509 -20143866.349 10 0 60219 79200.00000 0 13600475.455 -1965121.375 -21497961.210 10 0 60219 80100.00000 0 12147227.295 321201.962 -22434873.152 10 0 60219 81000.00000 0 10822417.610 2785248.443 -22936419.286 10 0 60219 81900.00000 0 9665713.542 5370248.646 -22992853.837 10 0 60219 82800.00000 0 8706354.955 8013068.846 -22603057.129 10 0 60219 83700.00000 0 7962034.218 10646606.459 -21774559.063 10 0 60219 84600.00000 0 7438276.510 13202360.508 -20523396.509 10 0 60219 85500.00000 0 7128346.039 15613071.371 -18873807.001 10 0 60220 0.00000 0 7013681.697 17815320.803 -16857764.335 10 0 60220 900.00000 0 7064843.535 19751985.937 -14514363.211 10 0 60220 1800.00000 0 7242930.123 21374442.627 -11889066.912 10 0 60220 2700.00000 0 7501406.817 22644430.492 -9032828.364 10 0 60220 3600.00000 0 7788267.781 23535498.913 -6001103.717 10 0 60220 4500.00000 0 8048440.180 24033974.745 -2852776.318 10 0 60220 5400.00000 0 8226328.517 24139411.022 350987.912 10 0 60220 6300.00000 0 8268390.961 23864497.834 3547931.283 10 0 60220 7200.00000 0 8125637.898 23234439.262 6675917.709 10 0 60220 8100.00000 0 7755946.086 22285822.707 9674144.541 10 0 60220 9000.00000 0 7126089.466 21065028.514 12484328.702 10 0 60220 9900.00000 0 6213399.678 19626247.121 15051843.440 10 0 60220 10800.00000 0 5006984.928 18029187.564 17326783.156 10 0 60220 11700.00000 0 3508454.619 16336574.026 19264935.314 10 0 60220 12600.00000 0 1732118.021 14611535.941 20828640.417 10 0 60220 13500.00000 0 -295352.552 12915001.366 21987523.422 10 0 60220 14400.00000 0 -2535781.069 11303202.932 22719082.648 10 0 60220 15300.00000 0 -4940834.683 9825400.726 23009125.040 10 0 60220 16200.00000 0 -7453802.920 8521917.029 22852039.718 10 0 60220 17100.00000 0 -10011735.798 7422564.593 22250904.820 10 0 60220 18000.00000 0 -12547852.528 6545533.465 21217425.805 10 0 60220 18900.00000 0 -14994121.170 5896782.081 19771706.513 10 0 60220 19800.00000 0 -17283902.421 5469957.109 17941857.435 10 0 60220 20700.00000 0 -19354547.908 5246844.408 15763448.683 10 0 60220 21600.00000 0 -21149845.188 5198331.090 13278818.120 10 0 60220 22500.00000 0 -22622207.893 5285837.272 10536247.914 10 0 60220 23400.00000 0 -23734519.973 5463156.265 7589025.405 10 0 60220 24300.00000 0 -24461557.383 5678624.796 4494406.531 10 0 60220 25200.00000 0 -24790928.210 5877530.825 1312502.006 10 0 60220 26100.00000 0 -24723492.338 6004656.561 -1894891.837 10 0 60220 27000.00000 0 -24273243.662 6006848.514 -5065494.555 10 0 60220 27900.00000 0 -23466660.390 5835505.313 -8137751.778 10 0 60220 28800.00000 0 -22341551.315 5448877.552 -11052030.248 10 0 60220 29700.00000 0 -20945447.047 4814081.947 -13751774.301 10 0 60220 30600.00000 0 -19333604.173 3908744.185 -16184601.336 10 0 60220 31500.00000 0 -17566706.349 2722200.573 -18303315.082 10 0 60220 32400.00000 0 -15708358.805 1256207.180 -20066817.390 10 0 60220 33300.00000 0 -13822481.013 -474874.206 -21440901.334 10 0 60220 34200.00000 0 -11970706.286 -2444422.078 -22398910.799 10 0 60220 35100.00000 0 -10209896.441 -4614419.860 -22922254.398 10 0 60220 36000.00000 0 -8589874.616 -6936804.346 -23000764.252 10 0 60220 36900.00000 0 -7151470.089 -9355242.995 -22632893.042 10 0 60220 37800.00000 0 -5924955.862 -11807267.383 -21825745.677 10 0 60220 38700.00000 0 -4928943.376 -14226675.305 -20594944.840 10 0 60220 39600.00000 0 -4169779.766 -16546102.690 -18964332.681 10 0 60220 40500.00000 0 -3641472.146 -18699659.259 -16965513.879 10 0 60220 41400.00000 0 -3326141.472 -20625518.941 -14637248.246 10 0 60220 42300.00000 0 -3194986.451 -22268357.517 -12024703.913 10 0 60220 43200.00000 0 -3209716.501 -23581536.059 -9178584.937 10 0 60220 44100.00000 0 -3324393.033 -24528938.948 -6154149.685 10 0 60220 45000.00000 0 -3487600.921 -25086389.413 -3010138.787 10 0 60220 45900.00000 0 -3644857.981 -25242583.088 192366.604 10 0 60220 46800.00000 0 -3741159.947 -24999500.167 3391133.880 10 0 60220 47700.00000 0 -3723552.533 -24372278.654 6523991.831 10 0 60220 48600.00000 0 -3543620.853 -23388553.928 9530043.157 10 0 60220 49500.00000 0 -3159789.879 -22087292.387 12350852.471 10 0 60220 50400.00000 0 -2539337.544 -20517168.314 14931586.078 10 0 60220 51300.00000 0 -1660034.320 -18734552.365 17222080.888 10 0 60220 52200.00000 0 -511338.878 -16801196.361 19177821.416 10 0 60220 53100.00000 0 904901.682 -14781711.751 20760805.707 10 0 60220 54000.00000 0 2574277.651 -12740947.540 21940283.475 10 0 60220 54900.00000 0 4470177.010 -10741377.452 22693352.350 10 0 60220 55800.00000 0 6554666.141 -8840605.466 23005400.951 10 0 60220 56700.00000 0 8779855.065 -7089093.570 22870390.583 10 0 60220 57600.00000 0 11089691.103 -5528206.076 22290970.394 10 0 60220 58500.00000 0 13422106.826 -4188651.401 21278423.995 10 0 60220 59400.00000 0 15711433.404 -3089385.440 19852448.715 10 0 60220 60300.00000 0 17890979.323 -2237021.258 18040771.737 10 0 60220 61200.00000 0 19895667.329 -1625768.635 15878610.506 10 0 60220 62100.00000 0 21664620.005 -1237904.723 13407987.701 10 0 60220 63000.00000 0 23143586.276 -1044754.816 10676913.891 10 0 60220 63900.00000 0 24287107.693 -1008140.819 7738453.681 10 0 60220 64800.00000 0 25060334.073 -1082235.279 4649693.435 10 0 60220 65700.00000 0 25440412.706 -1215741.765 1470630.742 10 0 60220 66600.00000 0 25417393.149 -1354308.635 -1736992.576 10 0 60220 67500.00000 0 24994609.959 -1443073.372 -4910890.942 10 0 60220 68400.00000 0 24188527.648 -1429229.207 -7989445.358 10 0 60220 69300.00000 0 23028054.723 -1264504.909 -10912899.744 10 0 60220 70200.00000 0 21553355.955 -907452.340 -13624519.883 10 0 60220 71100.00000 0 19814212.937 -325444.657 -16071692.407 10 0 60220 72000.00000 0 17868001.851 503699.717 -18206942.615 10 0 60220 72900.00000 0 15777373.127 1590536.349 -19988851.698 10 0 60220 73800.00000 0 13607729.845 2933307.683 -21382856.066 10 0 60220 74700.00000 0 11424609.908 4517779.209 -22361913.824 10 0 60220 75600.00000 0 9291080.650 6317606.784 -22907026.082 10 0 60220 76500.00000 0 7265253.796 8295220.865 -23007603.531 10 0 60220 77400.00000 0 5398023.483 10403191.906 -22661671.531 10 0 60220 78300.00000 0 3731120.647 12586021.246 -21875909.939 10 0 60220 79200.00000 0 2295563.877 14782284.066 -20665526.782 10 0 60220 80100.00000 0 1110570.391 16927036.268 -19053967.914 10 0 60220 81000.00000 0 182971.696 18954385.960 -17072467.745 10 0 60220 81900.00000 0 -492842.467 20800123.109 -14759449.048 10 0 60220 82800.00000 0 -934450.262 22404298.149 -12159782.756 10 0 60220 83700.00000 0 -1170414.551 23713642.037 -9323921.448 10 0 60220 84600.00000 0 -1238832.253 24683726.575 -6306922.757 10 0 60220 85500.00000 0 -1185477.997 25280774.249 -3167381.349 99